Weather History for KSAT - February, 2013

Change the Weather History Date:

Friday, February 15, 2013

  Actual Average Record
Temperature  
Mean Temperature 56 °F 56 °F  
Max Temperature 71 °F 67 °F 85 °F (1990)
Min Temperature 40 °F 44 °F 21 °F (1909)
Degree Days  
Heating Degree Days 9 10  
Month to date heating degree days 68 169  
Since 1 July heating degree days 889 1187  
Cooling Degree Days 0 1  
Month to date cooling degree days 6 11  
Year to date cooling degree days 33 18  
Growing Degree Days 5 (Base 50)    
Moisture  
Dew Point 36 °F    
Average Humidity 61    
Maximum Humidity 92    
Minimum Humidity 29    
Precipitation  
Precipitation 0.00 in 0.07 in 1.08 in (1931)
Month to date precipitation 0.09 0.96  
Year to date precipitation 2.92 2.72  
Snow  
Snow 0.00 in - - ()
Month to date snowfall 0.0  
Since 1 July snowfall T  
Snow Depth 0.00 in    
Sea Level Pressure  
Sea Level Pressure 30.18 in    
Wind  
Wind Speed 8 mph (North)    
Max Wind Speed 21 mph    
Max Gust Speed 28 mph    
Visibility 10 miles    
Events      
T = Trace of Precipitation, MM = Missing Value Source: NWS Daily Summary

Daily Weather History Graph

Daily Weather History Graph

Search for Another Location

Airport or City:

Trip Planner

Search our weather history database for the weather conditions in past years. The results will help you decide how hot, cold, wet, or windy it might be!

Date:

Astronomy

Feb. 15, 2013 Rise Set
Actual Time 7:12 AM CST 6:23 PM CST
Civil Twilight 6:48 AM CST 6:47 PM CST
Nautical Twilight 6:20 AM CST 7:15 PM CST
Astronomical Twilight 5:52 AM CST 7:43 PM CST
Moon 10:19 AM CST (2/15) 11:53 PM CST (2/15)
Length of Visible Light 11h 59m
Length of Day
11h 10m
Waxing Crescent, 30% of the Moon is Illuminated
Feb 15
Waxing Crescent
Feb 17
First Quarter
Feb 25
Full
Mar 4
Last Quarter
Mar 11
New

Hourly Weather History & Observations

Time (CST) Temp. Windchill Dew Point Humidity Pressure Visibility Wind Dir Wind Speed Gust Speed Precip Events Conditions
12:51 AM 48.0 °F - 39.0 °F 71% 30.06 in 10.0 mi Calm Calm - N/A   Clear
1:51 AM 46.0 °F - 39.0 °F 76% 30.07 in 10.0 mi Calm Calm - N/A   Clear
2:51 AM 43.0 °F 41.3 °F 37.9 °F 82% 30.06 in 10.0 mi NNW 3.5 mph - N/A   Clear
3:51 AM 43.0 °F 41.3 °F 37.9 °F 82% 30.07 in 10.0 mi NW 3.5 mph - N/A   Clear
4:51 AM 41.0 °F 38.0 °F 37.9 °F 89% 30.08 in 10.0 mi NW 4.6 mph - N/A   Clear
5:51 AM 42.1 °F 39.2 °F 37.9 °F 85% 30.10 in 10.0 mi NW 4.6 mph - N/A   Partly Cloudy
6:51 AM 41.0 °F 38.0 °F 37.9 °F 89% 30.13 in 10.0 mi WNW 4.6 mph - N/A   Mostly Cloudy
7:51 AM 45.0 °F 40.1 °F 42.1 °F 90% 30.17 in 10.0 mi NW 9.2 mph - N/A   Overcast
8:51 AM 52.0 °F - 44.1 °F 74% 30.19 in 10.0 mi NNW 6.9 mph - N/A   Overcast
9:51 AM 60.1 °F - 43.0 °F 53% 30.20 in 10.0 mi North 10.4 mph - N/A   Mostly Cloudy
10:51 AM 62.1 °F - 42.1 °F 48% 30.21 in 10.0 mi NE 6.9 mph - N/A   Mostly Cloudy
11:51 AM 64.0 °F - 39.0 °F 40% 30.20 in 10.0 mi Variable 5.8 mph - N/A   Mostly Cloudy
12:51 PM 66.0 °F - 36.0 °F 33% 30.17 in 10.0 mi Variable 4.6 mph - N/A   Mostly Cloudy
1:51 PM 66.9 °F - 34.0 °F 30% 30.14 in 10.0 mi Calm Calm - N/A   Mostly Cloudy
2:51 PM 66.0 °F - 33.1 °F 29% 30.13 in 10.0 mi NNE 3.5 mph - N/A   Mostly Cloudy
3:51 PM 64.9 °F - 35.1 °F 33% 30.13 in 10.0 mi NNE 9.2 mph - N/A   Mostly Cloudy
4:51 PM 63.0 °F - 36.0 °F 37% 30.15 in 10.0 mi NNE 11.5 mph 17.3 mph N/A   Mostly Cloudy
5:51 PM 59.0 °F - 37.0 °F 44% 30.18 in 10.0 mi NNE 11.5 mph - N/A   Mostly Cloudy
6:51 PM 55.0 °F - 37.9 °F 53% 30.22 in 10.0 mi North 18.4 mph 25.3 mph N/A   Mostly Cloudy
7:51 PM 53.1 °F - 37.0 °F 55% 30.26 in 10.0 mi NNE 10.4 mph 21.9 mph N/A   Mostly Cloudy
8:51 PM 51.1 °F - 35.1 °F 54% 30.30 in 10.0 mi NNE 18.4 mph 24.2 mph N/A   Mostly Cloudy
9:51 PM 48.9 °F - 35.1 °F 59% 30.32 in 10.0 mi NNE 13.8 mph 25.3 mph N/A   Mostly Cloudy
10:51 PM 48.0 °F - 27.0 °F 44% 30.35 in 10.0 mi North 12.7 mph 23.0 mph N/A   Overcast
11:51 PM 48.0 °F - 21.0 °F 34% 30.35 in 10.0 mi North 12.7 mph - N/A   Overcast